| time (UTC) | temp C | wind direction | speed KPH | gust KPH | rain 1hr cm | rain 24hr cm | rain mn cm | humidity % | barometer mb |
| 20260510203121 | 28 | 97 | 0.0 | 0.0 | 0.00 | 0.00 | 0.00 | 14 | 1016.6 |
| 20260510202617 | 28 | 97 | 0.0 | 6.4 | 0.00 | 0.00 | 0.00 | 14 | 1016.6 |
| 20260510202117 | 28 | 96 | 0.0 | 8.0 | 0.00 | 0.00 | 0.00 | 13 | 1016.6 |
| 20260510201112 | 29 | 116 | 4.8 | 11.3 | 0.00 | 0.00 | 0.00 | 13 | 1016.6 |
| 20260510200108 | 30 | 75 | 0.0 | 8.0 | 0.00 | 0.00 | 0.00 | 13 | 1016.6 |
| 20260510195604 | 30 | 76 | 6.4 | 6.4 | 0.00 | 0.00 | 0.00 | 13 | 1016.6 |
| 20260510193601 | 29 | 140 | 0.0 | 6.4 | 0.00 | 0.00 | 0.00 | 13 | 1016.6 |
| 20260510192556 | 28 | 138 | 4.8 | 8.0 | 0.00 | 0.00 | 0.00 | 13 | 1016.6 |
| 20260510192056 | 28 | 150 | 4.8 | 8.0 | 0.00 | 0.00 | 0.00 | 13 | 1016.6 |
| 20260510191557 | 28 | 94 | 6.4 | 8.0 | 0.00 | 0.00 | 0.00 | 14 | 1016.6 |
| 20260510191052 | 27 | 35 | 0.0 | 6.4 | 0.00 | 0.00 | 0.00 | 14 | 1016.6 |
| 20260510190553 | 27 | 60 | 4.8 | 9.7 | 0.00 | 0.00 | 0.00 | 14 | 1016.6 |
| 20260510184540 | 26 | 356 | 0.0 | 9.7 | 0.00 | 0.00 | 0.00 | 15 | 1017.6 |
| 20260510184036 | 26 | 356 | 6.4 | 9.7 | 0.00 | 0.00 | 0.00 | 14 | 1017.6 |
| 20260510182034 | 28 | 114 | 0.0 | 6.4 | 0.00 | 0.00 | 0.00 | 13 | 1017.6 |
| 20260510181025 | 28 | 118 | 8.0 | 9.7 | 0.00 | 0.00 | 0.00 | 13 | 1017.6 |
| 20260510180525 | 28 | 138 | 0.0 | 6.4 | 0.00 | 0.00 | 0.00 | 13 | 1017.6 |
| 20260510175014 | 27 | 351 | 4.8 | 11.3 | 0.00 | 0.00 | 0.00 | 14 | 1017.6 |
| 20260510174513 | 27 | 343 | 8.0 | 11.3 | 0.00 | 0.00 | 0.00 | 14 | 1017.6 |
| 20260510174007 | 28 | 167 | 0.0 | 8.0 | 0.00 | 0.00 | 0.00 | 14 | 1017.6 |
| 20260510173507 | 28 | 167 | 4.8 | 6.4 | 0.00 | 0.00 | 0.00 | 14 | 1017.6 |
| 20260510172503 | 28 | 95 | 6.4 | 11.3 | 0.00 | 0.00 | 0.00 | 14 | 1017.6 |
| 20260510172004 | 27 | 166 | 11.3 | 12.9 | 0.00 | 0.00 | 0.00 | 14 | 1017.6 |
| 20260510170958 | 26 | 164 | 4.8 | 8.0 | 0.00 | 0.00 | 0.00 | 14 | 1017.6 |
| 20260510170455 | 26 | 3 | 4.8 | 11.3 | 0.00 | 0.00 | 0.00 | 15 | 1017.6 |
| 20260510165449 | 25 | 124 | 6.4 | 11.3 | 0.00 | 0.00 | 0.00 | 15 | 1017.6 |
| 20260510164950 | 25 | 154 | 4.8 | 9.7 | 0.00 | 0.00 | 0.00 | 15 | 1017.6 |
| 20260510164450 | 25 | 165 | 8.0 | 9.7 | 0.00 | 0.00 | 0.00 | 15 | 1017.6 |
| 20260510163946 | 25 | 261 | 4.8 | 6.4 | 0.00 | 0.00 | 0.00 | 15 | 1017.6 |
| 20260510163446 | 25 | 253 | 4.8 | 9.7 | 0.00 | 0.00 | 0.00 | 15 | 1018.6 |
| 20260510162946 | 25 | 256 | 4.8 | 6.4 | 0.00 | 0.00 | 0.00 | 15 | 1018.6 |
| 20260510161942 | 25 | 159 | 4.8 | 9.7 | 0.00 | 0.00 | 0.00 | 18 | 1018.6 |
| 20260510160852 | 25 | 144 | 0.0 | 6.4 | 0.00 | 0.00 | 0.00 | 18 | 1018.6 |
| 20260510160338 | 25 | 90 | 4.8 | 9.7 | 0.00 | 0.00 | 0.00 | 21 | 1018.6 |
| 20260510155838 | 24 | 78 | 4.8 | 9.7 | 0.00 | 0.00 | 0.00 | 20 | 1018.6 |
| 20260510155334 | 23 | 59 | 6.4 | 9.7 | 0.00 | 0.00 | 0.00 | 20 | 1018.6 |
| 20260510154333 | 23 | 124 | 6.4 | 9.7 | 0.00 | 0.00 | 0.00 | 23 | 1018.6 |
| 20260510153823 | 23 | 166 | 4.8 | 8.0 | 0.00 | 0.00 | 0.00 | 24 | 1018.6 |
| 20260510153319 | 23 | 146 | 4.8 | 6.4 | 0.00 | 0.00 | 0.00 | 26 | 1017.6 |
| 20260510152819 | 22 | 146 | 4.8 | 9.7 | 0.00 | 0.00 | 0.00 | 28 | 1017.6 |
| 20260510152315 | 22 | 138 | 8.0 | 6.4 | 0.00 | 0.00 | 0.00 | 28 | 1017.6 |
| 20260510151316 | 22 | 117 | 6.4 | 6.4 | 0.00 | 0.00 | 0.00 | 27 | 1017.6 |
| 20260510145306 | 21 | 109 | 4.8 | 6.4 | 0.00 | 0.00 | 0.00 | 32 | 1017.6 |
| 20260510144806 | 21 | 109 | 0.0 | 8.0 | 0.00 | 0.00 | 0.00 | 33 | 1017.6 |
| 20260510141800 | 20 | 159 | 0.0 | 4.8 | 0.00 | 0.00 | 0.00 | 44 | 1017.6 |
| 20260510123237 | 17 | 170 | 0.0 | 6.4 | 0.00 | 0.00 | 0.00 | 67 | 1016.6 |
| 20260510121232 | 16 | 170 | 0.0 | 6.4 | 0.00 | 0.00 | 0.00 | 68 | 1016.6 |
| 20260510113714 | 16 | 170 | 0.0 | 0.0 | 0.00 | 0.00 | 0.00 | 65 | 1016.6 |
| 20260510111213 | 15 | 170 | 0.0 | 0.0 | 0.00 | 0.00 | 0.00 | 61 | 1016.6 |
| 20260510105710 | 15 | 170 | 0.0 | 0.0 | 0.00 | 0.00 | 0.00 | 59 | 1015.6 |
| 20260510105206 | 15 | 170 | 0.0 | 0.0 | 0.00 | 0.00 | 0.00 | 59 | 1015.6 |
| 20260510102705 | 15 | 170 | 0.0 | 0.0 | 0.00 | 0.00 | 0.00 | 57 | 1015.6 |
| 20260510101703 | 15 | 170 | 0.0 | 0.0 | 0.00 | 0.00 | 0.00 | 56 | 1015.6 |
| 20260510094158 | 15 | 170 | 0.0 | 0.0 | 0.00 | 0.00 | 0.00 | 54 | 1015.6 |
| 20260510092654 | 15 | 170 | 0.0 | 0.0 | 0.00 | 0.00 | 0.00 | 53 | 1014.6 |
| 20260510091652 | 15 | 170 | 0.0 | 0.0 | 0.00 | 0.00 | 0.00 | 53 | 1014.6 |
| 20260510091153 | 15 | 170 | 0.0 | 0.0 | 0.00 | 0.00 | 0.00 | 53 | 1014.6 |
| 20260510084649 | 14 | 170 | 0.0 | 0.0 | 0.00 | 0.00 | 0.00 | 53 | 1014.6 |
| 20260510082140 | 13 | 170 | 0.0 | 0.0 | 0.00 | 0.00 | 0.00 | 51 | 1014.6 |
| 20260510081141 | 14 | 170 | 0.0 | 0.0 | 0.00 | 0.00 | 0.00 | 51 | 1014.6 |
| 20260510080636 | 14 | 170 | 0.0 | 0.0 | 0.00 | 0.00 | 0.00 | 51 | 1014.6 |
| 20260510075635 | 14 | 170 | 0.0 | 0.0 | 0.00 | 0.00 | 0.00 | 50 | 1014.6 |
| 20260510074128 | 14 | 170 | 0.0 | 0.0 | 0.00 | 0.00 | 0.00 | 49 | 1014.6 |
| 20260510073624 | 14 | 170 | 0.0 | 0.0 | 0.00 | 0.00 | 0.00 | 49 | 1014.6 |
| 20260510073124 | 14 | 170 | 0.0 | 0.0 | 0.00 | 0.00 | 0.00 | 49 | 1014.6 |
| 20260510072625 | 14 | 170 | 0.0 | 0.0 | 0.00 | 0.00 | 0.00 | 49 | 1014.6 |
| 20260510071623 | 14 | 170 | 0.0 | 0.0 | 0.00 | 0.00 | 0.00 | 49 | 1014.6 |
| 20260510071123 | 14 | 170 | 0.0 | 0.0 | 0.00 | 0.00 | 0.00 | 48 | 1014.6 |
| 20260510070621 | 15 | 170 | 0.0 | 0.0 | 0.00 | 0.00 | 0.00 | 48 | 1014.6 |
| 20260510070120 | 15 | 170 | 0.0 | 0.0 | 0.00 | 0.00 | 0.00 | 48 | 1014.6 |
| 20260510065114 | 15 | 170 | 0.0 | 0.0 | 0.00 | 0.00 | 0.00 | 47 | 1014.6 |
| 20260510064615 | 15 | 170 | 0.0 | 0.0 | 0.00 | 0.00 | 0.00 | 47 | 1014.6 |
| 20260510064113 | 15 | 170 | 0.0 | 0.0 | 0.00 | 0.00 | 0.00 | 47 | 1014.6 |
| 20260510063609 | 15 | 170 | 0.0 | 0.0 | 0.00 | 0.00 | 0.00 | 47 | 1014.6 |
| 20260510063109 | 15 | 170 | 0.0 | 0.0 | 0.00 | 0.00 | 0.00 | 46 | 1014.6 |
| 20260510061606 | 15 | 170 | 0.0 | 0.0 | 0.00 | 0.00 | 0.00 | 46 | 1014.6 |
| 20260510061106 | 15 | 170 | 0.0 | 0.0 | 0.00 | 0.00 | 0.00 | 46 | 1014.6 |
| 20260510060600 | 15 | 170 | 0.0 | 0.0 | 0.00 | 0.00 | 0.00 | 45 | 1014.6 |
| 20260510060101 | 15 | 170 | 0.0 | 0.0 | 0.00 | 0.00 | 0.00 | 45 | 1014.6 |
| 20260510055601 | 15 | 170 | 0.0 | 0.0 | 0.00 | 0.00 | 0.00 | 45 | 1014.6 |
| 20260510055056 | 15 | 170 | 0.0 | 0.0 | 0.00 | 0.00 | 0.00 | 45 | 1014.6 |
| 20260510054555 | 15 | 170 | 0.0 | 0.0 | 0.00 | 0.00 | 0.00 | 44 | 1014.6 |
| 20260510054056 | 15 | 170 | 0.0 | 0.0 | 0.00 | 0.00 | 0.00 | 44 | 1014.6 |
| 20260510053051 | 16 | 170 | 0.0 | 0.0 | 0.00 | 0.00 | 0.00 | 44 | 1014.6 |
| 20260510052037 | 16 | 170 | 0.0 | 0.0 | 0.00 | 0.00 | 0.00 | 44 | 1014.6 |
| 20260510051536 | 16 | 170 | 0.0 | 0.0 | 0.00 | 0.00 | 0.00 | 43 | 1014.6 |
| 20260510050532 | 16 | 170 | 0.0 | 0.0 | 0.00 | 0.00 | 0.00 | 43 | 1014.6 |
| 20260510045532 | 16 | 170 | 0.0 | 0.0 | 0.00 | 0.00 | 0.00 | 43 | 1014.6 |
| 20260510044527 | 16 | 170 | 0.0 | 0.0 | 0.00 | 0.00 | 0.00 | 42 | 1014.6 |
| 20260510044027 | 16 | 170 | 0.0 | 0.0 | 0.00 | 0.00 | 0.00 | 41 | 1014.6 |
| 20260510043525 | 16 | 170 | 0.0 | 0.0 | 0.00 | 0.00 | 0.00 | 41 | 1014.6 |
| 20260510042524 | 16 | 170 | 0.0 | 0.0 | 0.00 | 0.00 | 0.00 | 41 | 1014.6 |
| 20260510042019 | 17 | 170 | 0.0 | 0.0 | 0.00 | 0.00 | 0.00 | 41 | 1014.6 |
| 20260510041520 | 17 | 170 | 0.0 | 0.0 | 0.00 | 0.00 | 0.00 | 40 | 1014.6 |
| 20260510041020 | 17 | 170 | 0.0 | 0.0 | 0.00 | 0.00 | 0.00 | 40 | 1014.6 |
| 20260510040516 | 17 | 170 | 0.0 | 0.0 | 0.00 | 0.00 | 0.00 | 39 | 1014.6 |
| 20260510040016 | 17 | 170 | 0.0 | 0.0 | 0.00 | 0.00 | 0.00 | 39 | 1014.6 |
| 20260510035511 | 17 | 170 | 0.0 | 0.0 | 0.00 | 0.00 | 0.00 | 39 | 1014.6 |
| 20260510035008 | 17 | 170 | 0.0 | 0.0 | 0.00 | 0.00 | 0.00 | 38 | 1014.6 |
| 20260510034509 | 17 | 170 | 0.0 | 0.0 | 0.00 | 0.00 | 0.00 | 38 | 1014.6 |
| 20260510033503 | 17 | 170 | 0.0 | 0.0 | 0.00 | 0.00 | 0.00 | 37 | 1014.6 |
| 20260510032001 | 17 | 170 | 0.0 | 0.0 | 0.00 | 0.00 | 0.00 | 36 | 1014.6 |
| 20260510030457 | 18 | 170 | 0.0 | 0.0 | 0.00 | 0.00 | 0.00 | 35 | 1014.6 |
| 20260510025951 | 18 | 170 | 0.0 | 0.0 | 0.00 | 0.00 | 0.00 | 35 | 1014.6 |
| 20260510025452 | 18 | 170 | 0.0 | 0.0 | 0.00 | 0.00 | 0.00 | 35 | 1014.6 |
| 20260510024949 | 18 | 170 | 0.0 | 0.0 | 0.00 | 0.00 | 0.00 | 34 | 1014.6 |
| 20260510024450 | 18 | 170 | 0.0 | 0.0 | 0.00 | 0.00 | 0.00 | 34 | 1014.6 |
| 20260510023950 | 18 | 170 | 0.0 | 0.0 | 0.00 | 0.00 | 0.00 | 34 | 1014.6 |
| 20260510023448 | 18 | 170 | 0.0 | 0.0 | 0.00 | 0.00 | 0.00 | 33 | 1014.6 |
| 20260510022447 | 18 | 170 | 0.0 | 0.0 | 0.00 | 0.00 | 0.00 | 33 | 1014.6 |
| 20260510021443 | 19 | 170 | 0.0 | 0.0 | 0.00 | 0.00 | 0.00 | 33 | 1013.6 |
| 20260510015942 | 19 | 249 | 0.0 | 4.8 | 0.00 | 0.00 | 0.00 | 32 | 1013.6 |
| 20260510015442 | 19 | 249 | 0.0 | 0.0 | 0.00 | 0.00 | 0.00 | 32 | 1013.6 |
| 20260510014938 | 19 | 249 | 0.0 | 0.0 | 0.00 | 0.00 | 0.00 | 30 | 1013.6 |
| 20260510014438 | 19 | 249 | 0.0 | 0.0 | 0.00 | 0.00 | 0.00 | 29 | 1013.6 |
| 20260510013937 | 19 | 249 | 0.0 | 0.0 | 0.00 | 0.00 | 0.00 | 28 | 1013.6 |
| 20260510013433 | 19 | 249 | 0.0 | 0.0 | 0.00 | 0.00 | 0.00 | 27 | 1012.6 |
| 20260510012934 | 20 | 249 | 0.0 | 0.0 | 0.00 | 0.00 | 0.00 | 27 | 1012.6 |
| 20260510012434 | 20 | 249 | 0.0 | 0.0 | 0.00 | 0.00 | 0.00 | 26 | 1012.6 |
| 20260510011931 | 20 | 249 | 0.0 | 0.0 | 0.00 | 0.00 | 0.00 | 26 | 1012.6 |
| 20260510011431 | 20 | 249 | 0.0 | 0.0 | 0.00 | 0.00 | 0.00 | 25 | 1012.6 |
| 20260510010932 | 20 | 249 | 0.0 | 0.0 | 0.00 | 0.00 | 0.00 | 24 | 1012.6 |
| 20260510005427 | 21 | 249 | 0.0 | 0.0 | 0.00 | 0.00 | 0.00 | 23 | 1012.6 |
| 20260510004922 | 21 | 249 | 0.0 | 0.0 | 0.00 | 0.00 | 0.00 | 23 | 1012.6 |
| 20260510004422 | 21 | 249 | 0.0 | 0.0 | 0.00 | 0.00 | 0.00 | 22 | 1012.6 |
| 20260510003920 | 21 | 249 | 0.0 | 0.0 | 0.00 | 0.00 | 0.00 | 22 | 1012.6 |
| 20260510003416 | 21 | 249 | 0.0 | 0.0 | 0.00 | 0.00 | 0.00 | 22 | 1012.6 |
| 20260510002916 | 22 | 249 | 0.0 | 0.0 | 0.00 | 0.00 | 0.00 | 22 | 1012.6 |
| 20260510002416 | 22 | 249 | 0.0 | 0.0 | 0.00 | 0.00 | 0.00 | 22 | 1012.6 |
| 20260510000911 | 22 | 249 | 0.0 | 0.0 | 0.00 | 0.00 | 0.00 | 21 | 1011.6 |
| 20260510000404 | 22 | 249 | 0.0 | 0.0 | 0.00 | 0.00 | 0.00 | 21 | 1011.6 |
| 20260509235404 | 23 | 249 | 0.0 | 0.0 | 0.00 | 0.00 | 0.00 | 18 | 1011.6 |
| 20260509234400 | 23 | 249 | 0.0 | 0.0 | 0.00 | 0.00 | 0.00 | 18 | 1011.6 |
| 20260509232854 | 23 | 249 | 0.0 | 0.0 | 0.00 | 0.00 | 0.00 | 18 | 1011.6 |
| 20260509231350 | 24 | 249 | 0.0 | 0.0 | 0.00 | 0.00 | 0.00 | 15 | 1011.6 |
| 20260509225845 | 24 | 249 | 0.0 | 0.0 | 0.00 | 0.00 | 0.00 | 15 | 1011.6 |
| 20260509222828 | 25 | 249 | 0.0 | 6.4 | 0.00 | 0.00 | 0.00 | 15 | 1011.6 |
| 20260509222328 | 26 | 267 | 0.0 | 0.0 | 0.00 | 0.00 | 0.00 | 15 | 1011.6 |
| 20260509221824 | 26 | 267 | 0.0 | 4.8 | 0.00 | 0.00 | 0.00 | 15 | 1011.6 |
| 20260509221324 | 25 | 267 | 0.0 | 9.7 | 0.00 | 0.00 | 0.00 | 15 | 1011.6 |
| 20260509220825 | 25 | 267 | 4.8 | 4.8 | 0.00 | 0.00 | 0.00 | 15 | 1011.6 |
| 20260509220320 | 25 | 318 | 0.0 | 6.4 | 0.00 | 0.00 | 0.00 | 15 | 1011.6 |
| 20260509215821 | 26 | 318 | 0.0 | 6.4 | 0.00 | 0.00 | 0.00 | 15 | 1011.6 |
| 20260509214817 | 26 | 318 | 0.0 | 4.8 | 0.00 | 0.00 | 0.00 | 14 | 1011.6 |
| 20260509213812 | 26 | 318 | 0.0 | 6.4 | 0.00 | 0.00 | 0.00 | 14 | 1011.6 |
| 20260509213307 | 26 | 318 | 0.0 | 6.4 | 0.00 | 0.00 | 0.00 | 14 | 1011.6 |
| 20260509211305 | 26 | 309 | 6.4 | 8.0 | 0.00 | 0.00 | 0.00 | 15 | 1011.6 |
| 20260509210803 | 26 | 341 | 6.4 | 6.4 | 0.00 | 0.00 | 0.00 | 15 | 1011.6 |
| 20260509205254 | 26 | 149 | 4.8 | 6.4 | 0.00 | 0.00 | 0.00 | 15 | 1011.6 |